| time (UTC) | temp C | wind direction | speed KPH | gust KPH | rain 1hr cm | rain 24hr cm | rain mn cm | humidity % | barometer mb |
| 20260505204612 | 2 | 220 | 0.0 | 0.0 | 0.00 | 0.00 | 0.00 | 61 | 1012.0 |
| 20260505203107 | 2 | 220 | 0.0 | 0.0 | 0.00 | 0.00 | 0.00 | 58 | 1011.8 |
| 20260505201556 | 2 | 220 | 0.0 | 0.0 | 0.00 | 0.00 | 0.00 | 57 | 1011.7 |
| 20260505200054 | 3 | 220 | 0.0 | 0.0 | 0.00 | 0.00 | 0.00 | 55 | 1011.6 |
| 20260505194558 | 4 | 220 | 0.0 | 3.2 | 0.00 | 0.00 | 0.00 | 53 | 1011.5 |
| 20260505193047 | 5 | 220 | 0.0 | 4.8 | 0.00 | 0.00 | 0.00 | 51 | 1011.3 |
| 20260505191548 | 6 | 224 | 0.0 | 1.6 | 0.00 | 0.00 | 0.00 | 46 | 1011.3 |
| 20260505190046 | 7 | 224 | 0.0 | 3.2 | 0.00 | 0.00 | 0.00 | 40 | 1011.3 |
| 20260505184551 | 8 | 272 | 0.0 | 0.0 | 0.00 | 0.00 | 0.00 | 39 | 1011.2 |
| 20260505183050 | 8 | 277 | 0.0 | 0.0 | 0.00 | 0.00 | 0.00 | 37 | 1011.1 |
| 20260505181542 | 9 | 303 | 1.6 | 9.7 | 0.00 | 0.00 | 0.00 | 35 | 1010.9 |
| 20260505180040 | 9 | 297 | 0.0 | 9.7 | 0.00 | 0.00 | 0.00 | 35 | 1010.9 |
| 20260505174541 | 10 | 10 | 3.2 | 17.7 | 0.00 | 0.00 | 0.00 | 35 | 1010.7 |
| 20260505173038 | 10 | 330 | 9.7 | 17.7 | 0.00 | 0.00 | 0.00 | 32 | 1010.6 |
| 20260505171536 | 10 | 293 | 4.8 | 17.7 | 0.00 | 0.00 | 0.00 | 33 | 1010.4 |
| 20260505170035 | 10 | 336 | 3.2 | 19.3 | 0.00 | 0.00 | 0.00 | 36 | 1010.3 |
| 20260505164552 | 10 | 303 | 8.0 | 17.7 | 0.00 | 0.00 | 0.00 | 35 | 1010.3 |
| 20260505163036 | 10 | 279 | 8.0 | 17.7 | 0.00 | 0.00 | 0.00 | 31 | 1010.2 |
| 20260505161544 | 10 | 310 | 4.8 | 16.1 | 0.00 | 0.00 | 0.00 | 33 | 1010.0 |
| 20260505153031 | 11 | 270 | 1.6 | 17.7 | 0.00 | 0.00 | 0.00 | 33 | 1010.0 |
| 20260505151531 | 10 | 296 | 4.8 | 24.1 | 0.00 | 0.00 | 0.00 | 33 | 1009.9 |
| 20260505124526 | 9 | 287 | 9.7 | 20.9 | 0.00 | 0.00 | 0.00 | 38 | 1010.2 |
| 20260505123016 | 10 | 313 | 3.2 | 19.3 | 0.00 | 0.00 | 0.00 | 39 | 1010.2 |
| 20260505121516 | 9 | 284 | 1.6 | 22.5 | 0.00 | 0.00 | 0.00 | 40 | 1010.3 |
| 20260505120115 | 9 | 309 | 4.8 | 20.9 | 0.00 | 0.00 | 0.00 | 37 | 1010.3 |
| 20260505114512 | 8 | 320 | 1.6 | 25.7 | 0.00 | 0.00 | 0.00 | 39 | 1010.2 |
| 20260505113012 | 8 | 269 | 6.4 | 20.9 | 0.00 | 0.00 | 0.00 | 38 | 1010.2 |
| 20260505111511 | 8 | 298 | 4.8 | 19.3 | 0.00 | 0.00 | 0.00 | 39 | 1010.1 |
| 20260505101503 | 8 | 324 | 3.2 | 14.5 | 0.00 | 0.00 | 0.00 | 48 | 1009.8 |
| 20260505100104 | 7 | 319 | 3.2 | 20.9 | 0.00 | 0.00 | 0.00 | 44 | 1009.7 |
| 20260505094558 | 8 | 297 | 1.6 | 16.1 | 0.00 | 0.00 | 0.00 | 45 | 1009.8 |
| 20260505093104 | 7 | 301 | 3.2 | 17.7 | 0.00 | 0.00 | 0.00 | 43 | 1009.7 |
| 20260505091552 | 7 | 343 | 3.2 | 19.3 | 0.00 | 0.00 | 0.00 | 46 | 1009.7 |
| 20260505090049 | 7 | 319 | 3.2 | 16.1 | 0.00 | 0.00 | 0.00 | 48 | 1009.7 |
| 20260505084552 | 7 | 315 | 3.2 | 19.3 | 0.00 | 0.00 | 0.00 | 50 | 1009.7 |
| 20260505083049 | 7 | 245 | 3.2 | 17.7 | 0.00 | 0.00 | 0.00 | 50 | 1009.6 |
| 20260505081546 | 7 | 280 | 3.2 | 19.3 | 0.00 | 0.00 | 0.00 | 48 | 1009.4 |
| 20260505080039 | 6 | 311 | 3.2 | 16.1 | 0.00 | 0.00 | 0.00 | 54 | 1009.3 |
| 20260505074532 | 6 | 265 | 4.8 | 19.3 | 0.00 | 0.00 | 0.00 | 56 | 1009.3 |
| 20260505073032 | 6 | 321 | 4.8 | 14.5 | 0.00 | 0.00 | 0.00 | 62 | 1009.2 |
| 20260505071525 | 6 | 305 | 1.6 | 14.5 | 0.00 | 0.00 | 0.00 | 62 | 1009.0 |
| 20260505070023 | 6 | 271 | 4.8 | 17.7 | 0.00 | 0.00 | 0.00 | 63 | 1009.0 |
| 20260505064519 | 6 | 347 | 4.8 | 14.5 | 0.00 | 0.00 | 0.00 | 66 | 1008.8 |
| 20260505063013 | 6 | 277 | 3.2 | 17.7 | 0.00 | 0.00 | 0.00 | 65 | 1008.9 |
| 20260505061510 | 5 | 295 | 3.2 | 16.1 | 0.00 | 0.00 | 0.00 | 66 | 1008.8 |
| 20260505060005 | 5 | 316 | 4.8 | 17.7 | 0.00 | 0.00 | 0.00 | 67 | 1008.5 |
| 20260505054600 | 5 | 274 | 3.2 | 12.9 | 0.00 | 0.00 | 0.00 | 68 | 1008.5 |
| 20260505053114 | 5 | 282 | 3.2 | 14.5 | 0.00 | 0.00 | 0.00 | 68 | 1008.3 |
| 20260505051551 | 5 | 266 | 1.6 | 11.3 | 0.00 | 0.00 | 0.00 | 71 | 1008.3 |
| 20260505041543 | 5 | 291 | 1.6 | 8.0 | 0.00 | 0.00 | 0.00 | 81 | 1007.8 |
| 20260505040037 | 5 | 257 | 0.0 | 6.4 | 0.00 | 0.00 | 0.00 | 84 | 1007.6 |
| 20260505034533 | 5 | 251 | 0.0 | 6.4 | 0.00 | 0.00 | 0.00 | 87 | 1007.5 |
| 20260505033030 | 5 | 255 | 1.6 | 9.7 | 0.00 | 0.00 | 0.00 | 87 | 1007.5 |
| 20260505031528 | 5 | 252 | 0.0 | 12.9 | 0.00 | 0.00 | 0.00 | 88 | 1007.2 |
| 20260505030026 | 6 | 290 | 1.6 | 12.9 | 0.00 | 0.00 | 0.00 | 87 | 1007.1 |
| 20260505024522 | 6 | 261 | 0.0 | 17.7 | 0.00 | 0.00 | 0.00 | 88 | 1007.1 |
| 20260505023021 | 6 | 270 | 4.8 | 16.1 | 0.00 | 0.00 | 0.00 | 87 | 1006.9 |
| 20260505021519 | 6 | 266 | 1.6 | 20.9 | 0.00 | 0.00 | 0.00 | 87 | 1006.9 |
| 20260505020017 | 6 | 235 | 1.6 | 16.1 | 0.00 | 0.00 | 0.00 | 87 | 1006.7 |
| 20260505014514 | 6 | 264 | 1.6 | 22.5 | 0.00 | 0.00 | 0.00 | 87 | 1006.7 |
| 20260505013014 | 6 | 267 | 4.8 | 19.3 | 0.00 | 0.00 | 0.00 | 87 | 1006.7 |
| 20260505011525 | 6 | 258 | 3.2 | 12.9 | 0.00 | 0.00 | 0.00 | 87 | 1006.7 |
| 20260505010015 | 6 | 257 | 4.8 | 20.9 | 0.00 | 0.00 | 0.00 | 88 | 1006.7 |
| 20260505004508 | 6 | 238 | 1.6 | 11.3 | 0.00 | 0.00 | 0.00 | 87 | 1006.8 |
| 20260505003006 | 6 | 241 | 0.0 | 16.1 | 0.00 | 0.00 | 0.00 | 87 | 1006.7 |
| 20260505001508 | 6 | 200 | 4.8 | 17.7 | 0.00 | 0.00 | 0.00 | 86 | 1006.7 |
| 20260505000002 | 6 | 214 | 1.6 | 16.1 | 0.00 | 0.00 | 0.00 | 86 | 1006.6 |
| 20260504234600 | 6 | 220 | 1.6 | 14.5 | 0.00 | 0.00 | 0.00 | 86 | 1006.6 |
| 20260504233112 | 6 | 214 | 1.6 | 8.0 | 0.00 | 0.00 | 0.00 | 85 | 1006.6 |
| 20260504231559 | 6 | 228 | 1.6 | 11.3 | 0.00 | 0.00 | 0.00 | 85 | 1006.6 |
| 20260504230057 | 7 | 237 | 1.6 | 11.3 | 0.00 | 0.00 | 0.00 | 85 | 1006.5 |
| 20260504224553 | 7 | 222 | 4.8 | 14.5 | 0.00 | 0.00 | 0.00 | 84 | 1006.6 |
| 20260504223052 | 7 | 222 | 1.6 | 6.4 | 0.00 | 0.00 | 0.00 | 83 | 1006.7 |
| 20260504221548 | 7 | 217 | 1.6 | 19.3 | 0.00 | 0.00 | 0.00 | 82 | 1006.7 |
| 20260504220048 | 7 | 266 | 4.8 | 19.3 | 0.00 | 0.00 | 0.00 | 81 | 1006.9 |
| 20260504214544 | 7 | 185 | 1.6 | 11.3 | 0.00 | 0.00 | 0.00 | 80 | 1006.7 |
| 20260504213047 | 7 | 172 | 1.6 | 9.7 | 0.00 | 0.00 | 0.00 | 78 | 1006.7 |
| 20260504211543 | 8 | 244 | 4.8 | 14.5 | 0.00 | 0.00 | 0.00 | 75 | 1006.8 |
| 20260504210042 | 8 | 210 | 3.2 | 14.5 | 0.00 | 0.00 | 0.00 | 70 | 1006.7 |